LiveATC.Net - Listen to live air traffic control over the Internet!


ICAO: YSNW  IATA: NOA   Airport: Nowra Military Airport
City: Nowra   State/Province: New South Wales
Country: Australia   Continent: Oceania
YSNW METAR Weather: YSNW 051700Z AUTO 31001KT 9999 // OVC057 12/12 Q1020
YSNW Flight Activity (FlightAware)

YSNW Gnd/CTAF/App/Center
Feed Status: UP   Listeners: 0
Listen in your browser - HTML5 player (in browser, HTML5)
Click here to listen with your own player (launches your MP3 player)
Archive Access: YSNW Gnd/CTAF/App/Center
FacilityFrequency
Enroute132.300
Nowra Approach123.500
Nowra CTAF118.850
Nowra Ground135.850

NOTICE

Unauthorized use prohibited. See LiveATC.net Terms of Service


Airport/ARTCC Code
Frequency Search
(e.g., 124.400, 128.75)
Site-wide search
 


Browse Feeds
Top 50 Feeds
HF Oceanic Feeds
Coverage Map
Bad Weather Areas

LiveATC FAQ
Offer LiveATC feed
Contact LiveATC.net
Press Inquiries

LiveATC on iPhone
LiveATC on Android

Windows Phone
Windows 8/10

LiveATC Mobile
(Mobile browser)

ATC Audio Archives
Interesting Recordings

LiveATC Forums


Home Page
About LiveATC.net
Make a Donation
Terms of Use
Privacy Policy

Canadian Air Freqs

AIRMETs/SIGMETs

FAA Airport Status
NAS Status
Arrival Demand


Server Software By:
Icecast.org
Liquidsoap